Flag Weather past 2 weeks in Canelones, Uruguay

Now
59 °F

Clear.


Feels Like: 59 °F
Forecast: 55 / 85 °F
Wind: 5 mph from North

Location: Carrasco

Current Time: Nov 28, 2014 at 5:15:23 AM

Latest Report: Nov 28, 2014 at 5:00 AM


Visibility: 10 mi

Pressure: 29.98 "Hg

Humidity: 82%

Dew point: 54 °F

Location of CanelonesLocation

Historic Weather in Canelones — Graph

°F

Canelones temperature yesterday

Maximum temperature yesterday: 81 °F (at 3:00 PM)
Minimum temperature yesterday: 50 °F (at 7:00 AM)
Average temperature yesterday: 66 °F

Past Weeks' High & Low Weather Summary

 TemperatureHumidityPressure
High88 °F (Nov 15, 4:00 PM)100% (Nov 20, 7:00 AM)30.12 "Hg (Nov 20, 7:00 AM)
Low50 °F (Nov 14, 2:00 AM)24% (Nov 15, 4:00 PM)29.62 "Hg (Nov 22, 4:00 AM)
Average67 °F68%29.92 "Hg
* Reported Nov 13 4:00 AM — Nov 28 4:00 AM, Canelones, Weather by CustomWeather, © 2014

Note: Actual official high and low records may vary slightly from our data, if they occured in-between our weather recording intervals... More about our weather records

Advertising

Canelones weather history for previous 24 hours

 ConditionsComfort  
Time TempWeatherWind HumidityBarometerVisibility
4:00 AM
Nov 28
59 °FClear.7 mph82%29.98 "Hg10 mi
3:00 AM61 °FClear.6 mph77%29.98 "Hg10 mi
2:00 AM63 °FClear.5 mph83%30.01 "Hg10 mi
1:00 AM64 °FClear.6 mph88%29.98 "Hg10 mi
12:00 AM66 °FClear.6 mph88%30.01 "Hg10 mi
11:00 PM
Nov 27
66 °FClear.5 mph88%29.98 "Hg10 mi
10:00 PM68 °FClear.5 mph88%29.98 "Hg10 mi
9:00 PM68 °FClear.5 mph83%29.98 "Hg10 mi
8:00 PM72 °FSunny.7 mph73%29.98 "Hg10 mi
7:00 PM73 °FSunny.6 mph61%29.95 "Hg10 mi
6:00 PM73 °FPassing clouds.8 mph57%29.98 "HgN/A
5:00 PM75 °FPassing clouds.9 mph50%29.98 "HgN/A
4:00 PM77 °FPassing clouds.10 mph54%29.98 "HgN/A
3:00 PM81 °FSunny.8 mph28%29.98 "Hg10 mi
2:00 PM77 °FSunny.7 mph39%29.98 "Hg10 mi
1:00 PM77 °FSunny.6 mph34%29.98 "Hg10 mi
12:00 PM77 °FSunny.2 mph47%29.98 "Hg10 mi
11:00 AM73 °FSunny.2 mph57%29.98 "Hg10 mi
10:00 AM68 °FSunny.3 mph69%30.01 "Hg10 mi
9:00 AM63 °FSunny.3 mph73%30.01 "Hg10 mi
8:00 AM57 °FClear.3 mph88%30.01 "Hg5 mi
7:00 AM50 °FFog.2 mph94%29.98 "Hg3 mi
6:00 AM54 °FClear.2 mph88%29.98 "Hg10 mi
5:00 AM54 °FClear.No wind94%29.98 "Hg10 mi
Weather by CustomWeather, © 2014

See weather overviewHow to use our weather pages